TimeWET,TemperatureF,Dew PointF,Humidity,Sea Level PressureIn,VisibilityMPH,Wind Direction,Wind SpeedMPH,Gust SpeedMPH,PrecipitationIn,Events,Conditions,WindDirDegrees,DateUTC
12:00 AM,47,42,78,30.06,6,SSW,3.5,,,,Clear,200,2013-02-18 00:00:00
12:00 AM,46.4,42.8,87,30.04,-9999.0,SSW,3.5,-,N/A,,Clear,200,2013-02-18 00:00:00
2:00 AM,44.6,41.0,87,30.01,-9999.0,South,2.3,-,N/A,,Clear,190,2013-02-18 02:00:00
3:00 AM,44,41,83,30.03,6,Calm,Calm,,,,Clear,,2013-02-18 03:00:00
3:00 AM,44.6,41.0,87,30.01,-9999.0,Calm,Calm,-,N/A,,Clear,0,2013-02-18 03:00:00
4:00 AM,41.0,39.2,93,29.98,-9999.0,ESE,2.3,-,N/A,,Clear,110,2013-02-18 04:00:00
5:00 AM,44.6,41.0,87,29.98,-9999.0,SE,4.6,-,N/A,,Clear,140,2013-02-18 05:00:00
6:00 AM,45,40,77,29.99,6,SE,4.6,,,,Clear,140,2013-02-18 06:00:00
6:00 AM,44.6,41.0,87,29.95,-9999.0,SE,4.6,-,N/A,,Clear,140,2013-02-18 06:00:00
7:00 AM,44.6,41.0,87,29.95,5.0,SE,3.5,-,N/A,,Unknown,130,2013-02-18 07:00:00
8:00 AM,44.6,39.2,81,29.95,5.0,SE,3.5,-,N/A,,Scattered Clouds,130,2013-02-18 08:00:00
9:00 AM,53,44,64,29.94,5,Calm,Calm,,,,Scattered Clouds,,2013-02-18 09:00:00
9:00 AM,53.6,44.6,72,29.95,-9999.0,North,-9999.0,-,N/A,,Mostly Cloudy,0,2013-02-18 09:00:00
10:00 AM,55.4,46.4,72,29.95,5.0,ENE,3.5,-,N/A,,Mostly Cloudy,60,2013-02-18 10:00:00
11:00 AM,59.0,44.6,59,29.92,-9999.0,East,2.3,-,N/A,,Clear,80,2013-02-18 11:00:00
12:00 PM,62,46,45,29.87,5,ENE,2.3,,,,Clear,70,2013-02-18 12:00:00
12:00 PM,62.6,46.4,55,29.92,5.0,ENE,2.3,-,N/A,,Mostly Cloudy,70,2013-02-18 12:00:00
1:00 PM,62.6,44.6,52,29.89,5.0,East,2.3,-,N/A,,Mostly Cloudy,90,2013-02-18 13:00:00
2:00 PM,66.2,33.8,30,29.83,5.0,SSW,9.2,-,N/A,,Unknown,210,2013-02-18 14:00:00
3:00 PM,65,35,22,29.79,6,SW,8.1,,,,Overcast,230,2013-02-18 15:00:00
3:00 PM,64.4,35.6,34,29.83,5.0,SW,8.1,-,N/A,,Unknown,230,2013-02-18 15:00:00
4:00 PM,64.4,35.6,34,29.83,5.0,SW,5.8,-,N/A,,Unknown,220,2013-02-18 16:00:00
5:00 PM,62.6,41.0,45,29.83,5.0,West,6.9,-,N/A,,Unknown,260,2013-02-18 17:00:00
6:00 PM,58,40,39,29.83,5,West,9.2,,,,Overcast,270,2013-02-18 18:00:00
6:00 PM,59.0,39.2,48,29.86,5.0,West,9.2,-,N/A,,Unknown,270,2013-02-18 18:00:00
7:00 PM,55.4,41.0,58,29.86,5.0,WSW,3.5,-,N/A,,Unknown,250,2013-02-18 19:00:00
8:00 PM,-9999,41.0,N/A,29.86,5.0,WSW,3.5,-,N/A,,Unknown,240,2013-02-18 20:00:00
9:00 PM,53,42,57,29.87,5,SE,3.5,,,,Overcast,140,2013-02-18 21:00:00
9:00 PM,53.6,42.8,67,29.86,5.0,SE,3.5,-,N/A,,Unknown,140,2013-02-18 21:00:00
10:00 PM,51.8,42.8,71,29.86,5.0,ESE,3.5,-,N/A,,Unknown,120,2013-02-18 22:00:00
11:00 PM,51.8,41.0,67,29.86,5.0,SSE,4.6,-,N/A,,Unknown,150,2013-02-18 23:00:00